Richmond, VA

8:04 AM EST on February 24, 2017 (GMT -0500)
Richmond International

Weather History for KRIC - March, 2013

Change the Weather History Date:

Wednesday, March 13, 2013

  Actual Average Record
Temperature  
Mean Temperature 43 °F 48 °F  
Max Temperature 54 °F 59 °F 89 °F (1990)
Min Temperature 32 °F 36 °F 15 °F (1960)
Degree Days  
Heating Degree Days 22 18  
Month to date heating degree days 280 253  
Since 1 July heating degree days 3008 3189  
Cooling Degree Days 0 0  
Month to date cooling degree days 0 0  
Year to date cooling degree days 1 0  
Moisture  
Dew Point 27 °F    
Average Humidity 61    
Maximum Humidity 89    
Minimum Humidity 32    
Precipitation  
Precipitation T in 0.13 in 1.99 in (1993)
Month to date precipitation 3.30 1.57  
Year to date precipitation 11.23 7.37  
Snow  
Snow 0.00 in 0.00 in 2.80 in (1993)
Month to date snowfall 1.5 0.5  
Since 1 July snowfall 4.7 10.1  
Snow Depth 0.00 in    
Sea Level Pressure  
Sea Level Pressure 30.00 in    
Wind  
Wind Speed 11 mph (WNW)    
Max Wind Speed 28 mph    
Max Gust Speed 36 mph    
Visibility 10 miles    
Events Rain    
T = Trace of Precipitation, MM = Missing Value Source: NWS Daily Summary

Daily Weather History Graph

Daily Weather History Graph

Search for Another Location

Airport or City:

Trip Planner

Search our weather history database for the weather conditions in past years. The results will help you decide how hot, cold, wet, or windy it might be!

Date:

Astronomy

Mar. 13, 2013 Rise Set
Actual Time 7:22 AM EDT 7:14 PM EDT
Civil Twilight 6:56 AM EDT 7:40 PM EDT
Nautical Twilight 6:26 AM EDT 8:11 PM EDT
Astronomical Twilight 5:56 AM EDT 8:41 PM EDT
Moon 8:04 AM EDT (3/13) 9:25 PM EDT (3/13)
Length of Visible Light 12h 44m
Length of Day
11h 51m
Waxing Crescent, 4% of the Moon is Illuminated
Mar 13
Waxing Crescent
Mar 19
First Quarter
Mar 27
Full
Apr 3
Last Quarter
Apr 10
New

Hourly Weather History & Observations

Time (EDT) Temp. Windchill Dew Point Humidity Pressure Visibility Wind Dir Wind Speed Gust Speed Precip Events Conditions
12:54 AM 43.0 °F 37.7 °F 32.0 °F 65% 29.97 in 10.0 mi North 9.2 mph - N/A   Partly Cloudy
1:54 AM 41.0 °F 36.4 °F 30.9 °F 67% 29.98 in 10.0 mi North 6.9 mph - N/A   Clear
2:54 AM 39.0 °F 35.7 °F 30.0 °F 70% 29.99 in 10.0 mi North 4.6 mph - N/A   Clear
3:54 AM 39.0 °F 35.7 °F 30.9 °F 73% 30.00 in 10.0 mi WNW 4.6 mph - N/A   Clear
4:54 AM 37.9 °F 35.5 °F 30.9 °F 76% 30.01 in 10.0 mi WNW 3.5 mph - N/A   Clear
5:54 AM 34.0 °F 28.8 °F 30.0 °F 85% 30.00 in 10.0 mi SE 5.8 mph - N/A   Clear
6:54 AM 33.1 °F - 30.0 °F 89% 30.01 in 10.0 mi Calm Calm - N/A   Partly Cloudy
7:54 AM 33.1 °F 30.0 °F 30.0 °F 89% 30.03 in 10.0 mi SSW 3.5 mph - N/A   Partly Cloudy
8:54 AM 41.0 °F 38.0 °F 34.0 °F 76% 30.03 in 10.0 mi SSW 4.6 mph - N/A   Partly Cloudy
9:54 AM 45.0 °F 40.6 °F 33.1 °F 63% 30.03 in 10.0 mi SSW 8.1 mph - N/A   Clear
10:54 AM 48.9 °F - 32.0 °F 52% 30.02 in 10.0 mi SW 9.2 mph - N/A   Partly Cloudy
11:54 AM 51.1 °F - 28.9 °F 43% 30.00 in 10.0 mi SW 9.2 mph 19.6 mph N/A   Partly Cloudy
12:54 PM 53.1 °F - 27.0 °F 37% 29.98 in 10.0 mi SW 8.1 mph - N/A   Scattered Clouds
1:54 PM 54.0 °F - 24.1 °F 31% 29.95 in 10.0 mi West 16.1 mph 23.0 mph N/A   Mostly Cloudy
2:39 PM 53.6 °F - 23.0 °F 30% 29.92 in 10.0 mi WNW 15.0 mph 26.5 mph N/A   Mostly Cloudy
2:51 PM 50.0 °F - 23.0 °F 35% 29.93 in 10.0 mi WNW 25.3 mph 33.4 mph N/A   Overcast
2:54 PM 48.9 °F - 25.0 °F 39% 29.94 in 10.0 mi NW 19.6 mph 33.4 mph 0.00 in Rain Light Rain
3:54 PM 52.0 °F - 24.1 °F 34% 29.94 in 10.0 mi West 17.3 mph 31.1 mph 0.00 in   Mostly Cloudy
4:54 PM 51.1 °F - 27.0 °F 39% 29.96 in 10.0 mi WNW 17.3 mph 27.6 mph N/A   Scattered Clouds
5:54 PM 51.1 °F - 24.1 °F 35% 29.96 in 10.0 mi West 19.6 mph - N/A   Scattered Clouds
6:54 PM 48.9 °F - 21.9 °F 35% 29.98 in 10.0 mi WNW 18.4 mph 25.3 mph N/A   Partly Cloudy
7:54 PM 46.9 °F - 25.0 °F 42% 30.01 in 10.0 mi NW 12.7 mph - N/A   Scattered Clouds
8:54 PM 46.0 °F 42.5 °F 23.0 °F 40% 30.03 in 10.0 mi WNW 6.9 mph - N/A   Mostly Cloudy
9:54 PM 44.1 °F 36.2 °F 19.0 °F 37% 30.06 in 10.0 mi NW 18.4 mph 29.9 mph N/A   Mostly Cloudy
10:54 PM 39.9 °F 31.1 °F 16.0 °F 38% 30.09 in 10.0 mi NW 17.3 mph 24.2 mph N/A   Partly Cloudy
11:54 PM 37.9 °F 30.0 °F 14.0 °F 38% 30.11 in 10.0 mi NW 12.7 mph - N/A   Clear